Weather Roundup
Issued by NWS Springfield, MO

Home | Current Version | Previous Version | Text Only | Print | Product List | Glossary On
Versions: 1 2 3 4 5 6 7 8 9 10 11 12 13 14 15 16 17 18 19 20 21 22 23 24 25 26 27 28 29 30 31 32 33 34 35 36 37 38 39 40 41 42 43 44 45 46 47 48 49 50
000
NZUS99 KSGF 301259
HRRSGF

HOURLY WEATHER
NATIONAL WEATHER SERVICE SPRINGFIELD MO
800 AM CDT SAT AUG 30 2014

......SGF CWA......

CITY           SKY/WX    TMP DP  RH WIND       PRES   REMARKS
SPRINGFIELD    PTSUNNY   71  66  84 S8        29.98R
JOPLIN         MOSUNNY   73  70  90 S8        29.97R
WEST PLAINS    PTSUNNY   72  68  87 S7        30.02R
ROLLA          SUNNY     71  68  90 S10       29.94F
OSAGE BEACH    PTSUNNY   72  66  83 S6        29.95R
BRANSON        CLOUDY    72  70  94 CALM      30.02R

......SURROUNDING SGF CWA......

CITY           SKY/WX    TMP DP  RH WIND       PRES   REMARKS
CHANUTE        MOSUNNY   71  70  96 S3        29.95R FOG
PARSONS        SUNNY     72  70  93 S3        29.96R
COFFEYVILLE    SUNNY     74  70  87 S7        29.94R
EMPORIA        SUNNY     67  66  97 CALM      29.95R
SILOAM SPRINGS PTSUNNY   72  63  73 S8        30.01S
HARRISON AR    PTSUNNY   71  70  96 S5        30.02R
NEAR YELLVILLE PTSUNNY   72  66  83 CALM      29.99S

......KANSAS AND MISSOURI......

CITY           SKY/WX    TMP DP  RH WIND       PRES   REMARKS
KANSAS CTY INT MOSUNNY   69  67  93 W6        29.93R
DOWNTOWN KC    SUNNY     72  67  84 W6        29.92R
COLUMBIA       MOSUNNY   72  70  93 SW5       29.93S
SEDALIA        SUNNY     74  69  85 SW10      29.94R
ST JOSEPH      SUNNY     68  67  96 CALM      29.92R
ST LOUIS       PTSUNNY   76  68  76 S8        29.95R
SPIRIT OF STL  PTSUNNY   73  68  84 CALM      29.94R
KIRKSVILLE     SUNNY     71  68  90 SW5       29.91R
WICHITA        MOSUNNY   67  65  93 CALM      29.95S FOG
TOPEKA         SUNNY     70  68  93 W3        29.94R
OLATHE         SUNNY     69  66  90 SW6       29.93R

......TENNESSEE......

CITY           SKY/WX    TMP DP  RH WIND       PRES   REMARKS
MEMPHIS        LGT RAIN  78  73  84 S6        30.03R
NASHVILLE      PTSUNNY   75  66  73 S5        30.07S

......ARKANSAS.......

CITY           SKY/WX    TMP DP  RH WIND       PRES   REMARKS
FAYETTEVILLE   LGT RAIN  71  69  93 CALM      30.01R
FT SMITH       MOSUNNY   74  72  93 E6        29.97S FOG
LITTLE ROCK    CLOUDY    77  71  82 S3        30.00S

......OKLAHOMA.......

CITY           SKY/WX    TMP DP  RH WIND       PRES   REMARKS
TULSA          MOSUNNY   76  72  87 S7        29.92S
PONCA CITY     SUNNY     70  67  90 S3        29.94R
MCALESTER      MOSUNNY   75  69  81 S5        29.97R
OKLAHOMA CITY  SUNNY     70  66  87 CALM      29.97R

......IOWA............

CITY           SKY/WX    TMP DP  RH WIND       PRES   REMARKS
DES MOINES     CLOUDY    68  65  90 NW9       29.87R
QUAD CITIES    CLOUDY    71  67  87 SW13G22   29.84R

......ILLINOIS........

CITY           SKY/WX    TMP DP  RH WIND       PRES   REMARKS
QUINCY         SUNNY     71  69  93 S8        29.90R
CHICAGO        PTSUNNY   74  68  81 SW10      29.85F




USA.gov is the U.S. government's official web portal to all federal, state and local government web resources and services.